TimeEDT,TemperatureF,Dew PointF,Humidity,Sea Level PressureIn,VisibilityMPH,Wind Direction,Wind SpeedMPH,Gust SpeedMPH,PrecipitationIn,Events,Conditions,WindDirDegrees,DateUTC
12:54 AM,36.0,28.9,76,30.25,10.0,WNW,9.2,-,N/A,,Overcast,300,2013-05-25 04:54:00
1:33 AM,35.6,30.2,81,30.19,10.0,WNW,13.8,-,N/A,,Overcast,290,2013-05-25 05:33:00
1:54 AM,35.1,30.0,82,30.24,9.0,WNW,12.7,-,N/A,,Overcast,300,2013-05-25 05:54:00
2:54 AM,35.1,30.0,82,30.24,9.0,WNW,10.4,21.9,N/A,,Overcast,300,2013-05-25 06:54:00
3:54 AM,34.0,30.0,85,30.25,9.0,WNW,9.2,19.6,N/A,,Overcast,290,2013-05-25 07:54:00
4:30 AM,33.8,30.2,87,30.19,9.0,WNW,13.8,-,N/A,,Overcast,300,2013-05-25 08:30:00
4:54 AM,34.0,30.0,85,30.25,8.0,WNW,12.7,19.6,N/A,,Overcast,300,2013-05-25 08:54:00
5:54 AM,34.0,30.9,89,30.25,6.0,WNW,11.5,-,N/A,,Overcast,300,2013-05-25 09:54:00
6:25 AM,33.8,30.2,87,30.21,5.0,WNW,11.5,19.6,N/A,,Overcast,290,2013-05-25 10:25:00
6:54 AM,34.0,30.9,89,30.27,6.0,West,11.5,-,N/A,,Overcast,280,2013-05-25 10:54:00
7:32 AM,33.8,30.2,87,30.21,8.0,WNW,11.5,-,N/A,,Overcast,300,2013-05-25 11:32:00
7:54 AM,34.0,30.9,89,30.27,9.0,NW,15.0,-,N/A,,Overcast,310,2013-05-25 11:54:00
8:54 AM,37.0,30.9,79,30.27,10.0,NW,10.4,-,N/A,,Mostly Cloudy,310,2013-05-25 12:54:00
9:21 AM,37.4,30.2,75,30.21,10.0,WNW,11.5,19.6,N/A,,Scattered Clouds,290,2013-05-25 13:21:00
9:44 AM,37.4,32.0,81,30.21,10.0,West,13.8,-,N/A,,Mostly Cloudy,280,2013-05-25 13:44:00
9:54 AM,39.0,32.0,76,30.26,10.0,NW,15.0,-,N/A,,Scattered Clouds,310,2013-05-25 13:54:00
10:54 AM,44.1,32.0,63,30.26,10.0,WNW,17.3,33.4,N/A,,Partly Cloudy,300,2013-05-25 14:54:00
11:54 AM,46.9,32.0,56,30.27,10.0,NW,18.4,27.6,N/A,,Mostly Cloudy,320,2013-05-25 15:54:00
12:54 PM,48.9,32.0,52,30.25,10.0,NW,20.7,29.9,N/A,,Mostly Cloudy,310,2013-05-25 16:54:00
1:54 PM,51.1,32.0,48,30.22,10.0,NW,16.1,33.4,N/A,,Scattered Clouds,310,2013-05-25 17:54:00
2:54 PM,53.1,30.9,43,30.21,10.0,WNW,21.9,28.8,N/A,,Partly Cloudy,290,2013-05-25 18:54:00
3:54 PM,54.0,30.0,40,30.20,10.0,NW,21.9,32.2,N/A,,Partly Cloudy,310,2013-05-25 19:54:00
4:54 PM,54.0,28.0,37,30.20,10.0,WNW,19.6,33.4,N/A,,Partly Cloudy,300,2013-05-25 20:54:00
5:54 PM,54.0,28.0,37,30.19,10.0,WNW,23.0,33.4,N/A,,Partly Cloudy,290,2013-05-25 21:54:00
6:54 PM,52.0,27.0,38,30.20,10.0,WNW,21.9,32.2,N/A,,Clear,300,2013-05-25 22:54:00
7:54 PM,50.0,28.0,43,30.21,10.0,NW,20.7,29.9,N/A,,Clear,310,2013-05-25 23:54:00
8:54 PM,46.9,28.9,50,30.21,10.0,NW,16.1,-,N/A,,Clear,310,2013-05-26 00:54:00
9:54 PM,46.0,28.9,51,30.22,10.0,NW,12.7,-,N/A,,Clear,310,2013-05-26 01:54:00
10:54 PM,44.1,28.9,55,30.23,10.0,WNW,12.7,-,N/A,,Clear,300,2013-05-26 02:54:00
11:54 PM,43.0,28.9,58,30.22,10.0,WNW,10.4,-,N/A,,Clear,290,2013-05-26 03:54:00